Miscellaneous Local Product
Issued by NWS North Platte, NE

Home | Current Version | Previous Version | Text Only | Print | Product List | Glossary On
Versions: 1 2 3 4 5 6 7 8 9 10 11 12 13 14 15 16 17 18 19 20 21 22 23 24 25 26 27 28 29 30 31 32 33 34 35 36 37 38 39 40 41 42 43 44 45 46 47 48 49 50
884
AXUS43 KLBF 230810
MISLBF


WESTERN AND NORTH CENTRAL NEBRASKA HOURLY WEATHER ROUNDUP
NATIONAL WEATHER SERVICE NORTH PLATTE NE
200 AM CST FRI FEB 23 2018

NOTE: "FAIR" INDICATES FEW OR NO CLOUDS BELOW 12,000 FEET WITH NO
SIGNIFICANT WEATHER AND/OR OBSTRUCTIONS TO VISIBILITY.

NOTE: STATIONS NOT REPORTING VARIABLES SUCH AS SKY/WEATHER OR
PRESSURE ARE PROVIDED BY RAWS AND APRS NETWORKS AND ARE NOT UNDER
NATIONAL WEATHER SERVICE QUALITY CONTROL.

...OBSERVATIONS IN AND NEAR THE EASTERN PANHANDLE OF NEBRASKA...

CITY           SKY/WX    TMP DP  RH WIND       PRES   REMARKS
PINE RIDGE     FOG        5   4  95 VRB5      30.14R VSB 3/4 WCI  -4
GORDON         FLURRIES   6   3  84 CALM      30.10R
CHADRON        PTCLDY    -5  -9  83 W5        30.16R WCI -16
ALLIANCE       CLEAR     -3  -6  87 W6        30.08R WCI -15
SIDNEY         CLOUDY    18  14  84 NW6       30.07S WCI  10
CRESCENT LAKE    N/A      8   6  93 CALM        N/A
$$

...OBSERVATIONS IN NORTHERN NEBRASKA AND FAR SOUTHERN SOUTH DAKOTA...

CITY           SKY/WX    TMP DP  RH WIND       PRES   REMARKS
WINNER         CLOUDY    17  14  88 NW16      30.14R WCI   2
VALENTINE      CLOUDY    19  16  88 NW10      30.13R WCI   7
AINSWORTH      CLOUDY    15  14  96 NW9       30.11R WCI   3
O`NEILL        CLEAR     15  13  95 W9        30.12R WCI   3
THEDFORD       CLOUDY    13  11  90 W6        30.12R WCI   4
BROKEN BOW     CLEAR      9   6  88 W8        30.12S WCI  -3
ORD            CLEAR     16  14  92 N3        30.14R
ALBION         FOG       16  14  92 CALM      30.16R VSB 3/4
VALENTINE NWR    N/A     13  10  86 W6          N/A  WCI   4
HALSEY           N/A     13  10  89 W5          N/A  WCI   5
BUTTE            N/A     12  10  89 NW3         N/A
CHAMBERS         N/A     14  11  87 W3          N/A
EWING            N/A     17  15  91 W3          N/A
$$

...OBSERVATIONS IN SOUTHWEST NEBRASKA AND FAR NORTHEAST COLORADO...

CITY           SKY/WX    TMP DP  RH WIND       PRES   REMARKS
WRAY           FAIR      21  19  93 W7        30.12S WCI  13
HOLYOKE        FAIR      25  21  86 SW7       30.11R WCI  17
IMPERIAL       CLOUDY    20  19  96 SW5       30.13S WCI  13
OGALLALA       CLOUDY    17  15  90 SW5       30.12R WCI  10
NORTH PLATTE   CLOUDY    12   6  77 NW5       30.15R WCI   4
MCCOOK         CLOUDY    20  19  96 W7        30.16S FOG     WCI  11
LEXINGTON      CLEAR     12   9  86 W6        30.17R WCI   3
STAPLETON        N/A     11   9  92 CALM        N/A
$$

...OBSERVATIONS IN CENTRAL LINCOLN COUNTY AREA...

CITY           SKY/WX    TMP DP  RH WIND       PRES   REMARKS
N.P. AIRPORT   CLOUDY    12   6  77 NW5       30.15R WCI   4
N.P. DOWNTOWN    N/A     11   9  90 CALM        N/A
N.P. SOUTHEAST   N/A     13  10  89 CALM        N/A
N.P. HILLCREST   N/A     14  12  92 CALM        N/A
$$

...OBSERVATIONS ACROSS THE ROCKIES AND WESTERN HIGH PLAINS...

CITY           SKY/WX    TMP DP  RH WIND       PRES   REMARKS
RAPID CITY     CLEAR      2  -4  76 NW13      30.11R WCI -15
SCOTTSBLUFF    CLOUDY    10   7  87 CALM      30.10R
CHEYENNE       PTCLDY    11   9  92 W5        29.99R WCI   3
DENVER         CLEAR     19  15  84 CALM      30.02S FOG
BERTHOUD PASS  FAIR       0 -11  60 SW14G23   29.81S WCI -19
COPPER MTN     LGT SNOW   9   0  66 S14       29.82F WCI  -8
MONARCH PASS     N/A      3   0  85 SW25G32   29.94F WCI -20
ASPEN          CLOUDY    16  11  80 CALM      29.91F
LARAMIE        CLOUDY    10   9  95 S7        29.94R WCI  -1
CASPER         CLOUDY    -8 -11  86 CALM      30.03S
$$

...OBSERVATIONS ACROSS THE NORTHERN PLAINS...

CITY           SKY/WX    TMP DP  RH WIND       PRES   REMARKS
BISMARCK       CLOUDY    14   5  67 NW10      30.18F WCI   1
FARGO          LGT SNOW  21  19  92 N9        30.16F FOG     WCI  11
PIERRE         CLOUDY    10   8  92 W10       30.16R WCI  -4
SIOUX FALLS    CLOUDY    21  20  96 W10       30.10S FOG     WCI  10
$$

...OBSERVATIONS ACROSS THE CENTRAL AND SOUTHERN PLAINS...

CITY           SKY/WX    TMP DP  RH WIND       PRES   REMARKS
OMAHA          CLOUDY    30  26  85 W8        30.18R WCI  22
GRAND ISLAND   CLEAR     22  19  89 W8        30.17S WCI  12
KANSAS CITY    FRZ DRZL  32  31  96 W5        30.19R VSB 1/4 WCI  27
WICHITA        CLOUDY    32  32 100 CALM      30.21S FOG
DODGE CITY     FOG       30  29  96 NE7       30.15R VSB 1/4 WCI  23
OKLAHOMA CITY  CLOUDY    32  32 100 CALM      30.19S FOG
DALLAS         CLOUDY    41  37  86 CALM      30.24R THUNDER
AMARILLO       CLOUDY    31  28  89 SW9       30.11S WCI  23
$$




USA.gov is the U.S. government's official web portal to all federal, state and local government web resources and services.